Weather History for CYGX - July, 2013

Change the Weather History Date:

Wednesday, July 3, 2013

  Actual Average Record
Temperature  
Mean Temperature 78 °F -  
Max Temperature 92 °F 70 °F 92 °F (2013)
Min Temperature 64 °F 50 °F 41 °F (2001)
Cooling Degree Days 13    
Growing Degree Days 28 (Base 50)    
Moisture  
Dew Point 62 °F    
Average Humidity 65    
Maximum Humidity 94    
Minimum Humidity 27    
Precipitation  
Precipitation 0.16 in 0.11 in - ()
Sea Level Pressure  
Sea Level Pressure 29.66 in    
Wind  
Wind Speed 9 mph ()    
Max Wind Speed 29 mph    
Max Gust Speed 43 mph    
Visibility 8.7 miles    
Events Rain , Thunderstorm    
Averages and records for this station are not official NWS values.
T = Trace of Precipitation, MM = Missing Value Source: Averaged Metar Reports

Daily Weather History Graph

Daily Weather History Graph

Search for Another Location

Airport or City:

Trip Planner

Search our weather history database for the weather conditions in past years. The results will help you decide how hot, cold, wet, or windy it might be!

Date:

Astronomy

Jul. 03, 2013 Rise Set
Actual Time 4:36 AM CDT 10:09 PM CDT
Civil Twilight 3:34 AM CDT 11:11 PM CDT
Nautical Twilight 1:55 AM CDT 12:50 AM CDT
Astronomical Twilight Sun does not set Sun does not set
Moon 1:43 AM CDT (7/3) 5:58 PM CDT (7/3)
Length of Visible Light 19h 36m
Length of Day
17h 32m
Waning Crescent, 18% of the Moon is Illuminated
Jul 3
Waning Crescent
Jul 8
New
Jul 15
First Quarter
Jul 22
Full
Jul 29
Last Quarter

Hourly Weather History & Observations

Time (CDT) Temp. Heat Index Dew Point Humidity Pressure Visibility Wind Dir Wind Speed Gust Speed Precip Events Conditions
12:00 AM 64.4 °F - 57.2 °F 77% 29.88 in 15.0 mi SE 6.9 mph - N/A   Partly Cloudy
1:00 AM 65 °F - 57 °F 69% 29.85 in 15 mi SSE 6.9 mph - -   Smoke
1:00 AM 64.4 °F - 57.2 °F 77% 29.85 in 15.0 mi SSE 6.9 mph - N/A   Partly Cloudy
2:00 AM 66.2 °F - 59.0 °F 78% 29.83 in 15.0 mi South 8.1 mph - N/A   Partly Cloudy
3:00 AM 68.0 °F - 59.0 °F 73% 29.80 in 15.0 mi South 9.2 mph - N/A   Partly Cloudy
4:00 AM 68.0 °F - 59.0 °F 73% 29.77 in 15.0 mi South 8.1 mph - N/A   Partly Cloudy
5:00 AM 68.0 °F - 60.8 °F 78% 29.75 in 8.0 mi SSW 10.4 mph - N/A   Scattered Clouds
6:00 AM 68.0 °F - 60.8 °F 78% 29.74 in 3.0 mi SSW 11.5 mph - N/A   Smoke
7:00 AM 70 °F - 61 °F 66% 29.73 in 3 mi SW 11.5 mph - -   Smoke
7:00 AM 69.8 °F - 60.8 °F 73% 29.73 in 3.0 mi SSW 9.2 mph - N/A   Smoke
8:00 AM 75.2 °F - 62.6 °F 65% 29.71 in 5.0 mi SSW 11.5 mph - N/A   Smoke
9:00 AM 80.6 °F 81.8 °F 62.6 °F 54% 29.69 in 8.0 mi SW 13.8 mph - N/A   Scattered Clouds
10:00 AM 84.2 °F 83.8 °F 59.0 °F 42% 29.67 in 10.0 mi SSW 17.3 mph 25.3 mph N/A   Mostly Cloudy
11:00 AM 87.8 °F 87.1 °F 59.0 °F 38% 29.63 in 5.0 mi SW 13.8 mph 20.7 mph N/A   Smoke
12:00 PM 89.6 °F 89.5 °F 60.8 °F 38% 29.60 in 4.0 mi WSW 16.1 mph 26.5 mph N/A   Smoke
1:00 PM 91 °F - 61 °F 27% 29.57 in 10 mi WSW 20.7 mph - -   Clear
1:00 PM 91.4 °F 91.4 °F 60.8 °F 36% 29.57 in 10.0 mi WSW 16.1 mph 28.8 mph N/A   Mostly Cloudy
2:00 PM 91.4 °F 91.4 °F 60.8 °F 36% 29.55 in 5.0 mi SW 13.8 mph 23.0 mph N/A   Smoke
3:00 PM 91.4 °F 91.4 °F 60.8 °F 36% 29.55 in 8.0 mi SW 13.8 mph 23.0 mph N/A   Mostly Cloudy
4:00 PM 91.4 °F 90.7 °F 59.0 °F 34% 29.50 in 10.0 mi WSW 13.8 mph 20.7 mph N/A   Mostly Cloudy
4:32 PM - - - N/A% - 8.0 mi NW 28.8 mph 42.6 mph N/A Rain Light Rain Showers
5:00 PM 75.2 °F - 64.4 °F 69% 29.55 in 10.0 mi NW 18.4 mph 28.8 mph N/A Rain Light Rain Showers
5:32 PM - - - N/A% - 10.0 mi NW 9.2 mph - N/A Rain Light Rain Showers
6:00 PM 73.4 °F - 64.4 °F 73% 29.55 in 8.0 mi NW 3.5 mph - N/A   Overcast
6:51 PM - - - N/A% - 5.0 mi West 9.2 mph - N/A Rain , Thunderstorm Light Thunderstorms and Rain
7:00 PM 71 °F - 66 °F 81% 29.56 in 5 mi NW 8.1 mph - - Rain , Thunderstorm Thunderstorms and Rain
7:00 PM 71.6 °F - 66.2 °F 83% 29.56 in 5.0 mi NW 6.9 mph - N/A Rain , Thunderstorm Light Thunderstorms and Rain
7:24 PM - - - N/A% - 2.0 mi West 16.1 mph 23.0 mph N/A Rain , Thunderstorm Light Thunderstorms and Rain
8:00 PM 69.8 °F - 66.2 °F 88% 29.57 in 5.0 mi WNW 6.9 mph 17.3 mph N/A Rain , Thunderstorm Light Thunderstorms and Rain
8:21 PM - - - N/A% - 15.0 mi WNW 5.8 mph - N/A Thunderstorm Thunderstorm
9:00 PM 68.0 °F - 66.2 °F 94% 29.55 in 15.0 mi South 3.5 mph - N/A Thunderstorm Thunderstorm
9:15 PM - - - N/A% - 15.0 mi South 5.8 mph - N/A Rain , Thunderstorm Light Thunderstorms and Rain
9:52 PM - - - N/A% - 7.0 mi SSW 5.8 mph - N/A   Mostly Cloudy
10:00 PM 68.0 °F - 66.2 °F 94% 29.54 in 7.0 mi South 8.1 mph - N/A   Mostly Cloudy
11:00 PM 68.0 °F - 66.2 °F 94% 29.56 in 7.0 mi SW 10.4 mph - N/A   Mostly Cloudy